Time,TemperatureF,DewpointF,PressureIn,WindDirection,WindDirectionDegrees,WindSpeedMPH,WindSpeedGustMPH,Humidity,HourlyPrecipIn,Conditions,Clouds,dailyrainin,SoftwareType,DateUTC
2013-07-08 00:02:00,74.3,63.7,29.98,NNE,15,0.0,0.0,69,0.00,,,0.00,WUHU216DAVISVP2,2013-07-08 05:02:00,
2013-07-08 00:07:00,74.0,63.4,29.98,NNE,15,0.0,0.0,69,0.00,,,0.00,WUHU216DAVISVP2,2013-07-08 05:07:00,
2013-07-08 00:12:00,73.8,63.2,29.98,NNE,15,0.0,2.0,69,0.00,,,0.00,WUHU216DAVISVP2,2013-07-08 05:12:00,
2013-07-08 00:17:00,73.6,63.0,29.98,NNE,15,0.0,2.0,69,0.00,,,0.00,WUHU216DAVISVP2,2013-07-08 05:17:00,
2013-07-08 00:22:00,73.6,63.0,29.98,NNE,15,0.0,2.0,69,0.00,,,0.00,WUHU216DAVISVP2,2013-07-08 05:22:00,
2013-07-08 00:27:00,73.5,62.9,29.98,NNE,15,0.0,2.0,69,0.00,,,0.00,WUHU216DAVISVP2,2013-07-08 05:27:00,
2013-07-08 00:32:00,73.5,62.9,29.98,NNE,15,1.0,2.0,69,0.00,,,0.00,WUHU216DAVISVP2,2013-07-08 05:32:00,
2013-07-08 00:37:00,73.3,63.1,29.98,NNE,15,0.0,2.0,70,0.00,,,0.00,WUHU216DAVISVP2,2013-07-08 05:37:00,
2013-07-08 00:42:00,73.1,62.9,29.98,NNE,15,0.0,2.0,70,0.00,,,0.00,WUHU216DAVISVP2,2013-07-08 05:42:00,
2013-07-08 00:47:00,72.9,63.1,29.98,NNE,15,1.0,2.0,71,0.00,,,0.00,WUHU216DAVISVP2,2013-07-08 05:47:00,
2013-07-08 00:52:00,72.8,63.0,29.98,NNE,15,2.0,5.0,71,0.00,,,0.00,WUHU216DAVISVP2,2013-07-08 05:52:00,
2013-07-08 00:57:00,72.8,63.0,29.98,NNE,15,2.0,5.0,71,0.00,,,0.00,WUHU216DAVISVP2,2013-07-08 05:57:00,
2013-07-08 01:02:00,72.8,63.0,29.98,NNE,15,1.0,5.0,71,0.00,,,0.00,WUHU216DAVISVP2,2013-07-08 06:02:00,
2013-07-08 01:07:00,72.7,62.9,29.98,NNE,15,1.0,5.0,71,0.00,,,0.00,WUHU216DAVISVP2,2013-07-08 06:07:00,
2013-07-08 01:12:00,72.7,63.3,29.98,NNE,15,2.0,4.0,72,0.00,,,0.00,WUHU216DAVISVP2,2013-07-08 06:12:00,
2013-07-08 01:17:00,72.6,63.2,29.98,NNE,15,2.0,4.0,72,0.00,,,0.00,WUHU216DAVISVP2,2013-07-08 06:17:00,
2013-07-08 01:22:00,72.7,63.3,29.98,NNE,15,1.0,4.0,72,0.00,,,0.00,WUHU216DAVISVP2,2013-07-08 06:22:00,
2013-07-08 01:27:00,72.6,63.2,29.98,NNE,15,0.0,4.0,72,0.00,,,0.00,WUHU216DAVISVP2,2013-07-08 06:27:00,
2013-07-08 01:32:00,72.6,63.2,29.98,NNE,15,0.0,4.0,72,0.00,,,0.00,WUHU216DAVISVP2,2013-07-08 06:32:00,
2013-07-08 01:37:00,72.6,63.6,29.98,NNE,15,2.0,3.0,73,0.00,,,0.00,WUHU216DAVISVP2,2013-07-08 06:37:00,
2013-07-08 01:42:00,72.5,63.5,29.98,NNE,15,0.0,4.0,73,0.00,,,0.00,WUHU216DAVISVP2,2013-07-08 06:42:00,
2013-07-08 01:47:00,72.4,63.5,29.98,NNE,15,1.0,4.0,73,0.00,,,0.00,WUHU216DAVISVP2,2013-07-08 06:47:00,
2013-07-08 01:52:00,72.3,63.7,29.98,NNE,15,1.0,4.0,74,0.00,,,0.00,WUHU216DAVISVP2,2013-07-08 06:52:00,
2013-07-08 01:57:00,72.2,63.7,29.98,NNE,15,1.0,5.0,74,0.00,,,0.00,WUHU216DAVISVP2,2013-07-08 06:57:00,
2013-07-08 02:02:00,72.4,63.8,29.98,NNE,15,1.0,5.0,74,0.00,,,0.00,WUHU216DAVISVP2,2013-07-08 07:02:00,
2013-07-08 02:07:00,72.3,63.7,29.98,NNE,15,0.0,5.0,74,0.00,,,0.00,WUHU216DAVISVP2,2013-07-08 07:07:00,
2013-07-08 02:12:00,72.3,63.7,29.98,NNE,15,1.0,5.0,74,0.00,,,0.00,WUHU216DAVISVP2,2013-07-08 07:12:00,
2013-07-08 02:17:00,72.3,63.7,29.98,NNE,15,1.0,5.0,74,0.00,,,0.00,WUHU216DAVISVP2,2013-07-08 07:17:00,
2013-07-08 02:22:00,72.2,64.0,29.98,NNE,15,0.0,5.0,75,0.00,,,0.00,WUHU216DAVISVP2,2013-07-08 07:22:00,
2013-07-08 02:27:00,72.1,63.9,29.98,NNE,15,1.0,5.0,75,0.00,,,0.00,WUHU216DAVISVP2,2013-07-08 07:27:00,
2013-07-08 02:32:00,72.0,63.8,29.98,NNE,15,1.0,5.0,75,0.00,,,0.00,WUHU216DAVISVP2,2013-07-08 07:32:00,
2013-07-08 02:37:00,71.9,64.1,29.98,NNE,15,4.0,5.0,76,0.00,,,0.00,WUHU216DAVISVP2,2013-07-08 07:37:00,
2013-07-08 02:42:00,71.9,64.1,29.98,NNE,15,1.0,6.0,76,0.00,,,0.00,WUHU216DAVISVP2,2013-07-08 07:42:00,
2013-07-08 02:47:00,72.0,64.1,29.98,NNE,15,1.0,6.0,76,0.00,,,0.00,WUHU216DAVISVP2,2013-07-08 07:47:00,
2013-07-08 02:52:00,71.9,64.0,29.98,NNE,15,1.0,6.0,76,0.00,,,0.00,WUHU216DAVISVP2,2013-07-08 07:52:00,
2013-07-08 02:57:00,71.9,64.4,29.98,NNE,15,1.0,6.0,77,0.00,,,0.00,WUHU216DAVISVP2,2013-07-08 07:57:00,
2013-07-08 03:02:00,71.7,64.2,29.97,NNE,15,1.0,5.0,77,0.00,,,0.00,WUHU216DAVISVP2,2013-07-08 08:02:00,
2013-07-08 03:07:00,71.6,64.1,29.98,NNE,15,2.0,5.0,77,0.00,,,0.00,WUHU216DAVISVP2,2013-07-08 08:07:00,
2013-07-08 03:12:00,71.5,64.1,29.98,NNE,15,1.0,5.0,77,0.00,,,0.00,WUHU216DAVISVP2,2013-07-08 08:12:00,
2013-07-08 03:17:00,71.5,64.3,29.98,NNE,15,2.0,5.0,78,0.00,,,0.00,WUHU216DAVISVP2,2013-07-08 08:17:00,
2013-07-08 03:22:00,71.4,64.3,29.98,NNE,15,1.0,5.0,78,0.00,,,0.00,WUHU216DAVISVP2,2013-07-08 08:22:00,
2013-07-08 03:27:00,71.3,64.2,29.98,NNE,15,1.0,4.0,78,0.00,,,0.00,WUHU216DAVISVP2,2013-07-08 08:27:00,
2013-07-08 03:32:00,71.3,64.2,29.97,NNE,15,0.0,5.0,78,0.00,,,0.00,WUHU216DAVISVP2,2013-07-08 08:32:00,
2013-07-08 03:37:00,71.1,64.4,29.97,NNE,15,1.0,5.0,79,0.00,,,0.00,WUHU216DAVISVP2,2013-07-08 08:37:00,
2013-07-08 03:42:00,71.1,64.3,29.97,NNE,15,4.0,5.0,79,0.00,,,0.00,WUHU216DAVISVP2,2013-07-08 08:42:00,
2013-07-08 03:47:00,71.1,64.3,29.97,NNE,15,1.0,5.0,79,0.00,,,0.00,WUHU216DAVISVP2,2013-07-08 08:47:00,
2013-07-08 03:52:00,71.0,64.3,29.97,NNE,15,0.0,5.0,79,0.00,,,0.00,WUHU216DAVISVP2,2013-07-08 08:52:00,
2013-07-08 03:57:00,71.0,64.3,29.98,NNE,15,3.0,5.0,79,0.00,,,0.00,WUHU216DAVISVP2,2013-07-08 08:57:00,
2013-07-08 04:02:00,70.9,64.2,29.98,NNE,15,0.0,5.0,79,0.00,,,0.00,WUHU216DAVISVP2,2013-07-08 09:02:00,
2013-07-08 04:07:00,71.0,64.2,29.98,NNE,15,1.0,5.0,79,0.00,,,0.00,WUHU216DAVISVP2,2013-07-08 09:07:00,
2013-07-08 04:12:00,70.9,64.5,29.98,NNE,15,1.0,5.0,80,0.00,,,0.00,WUHU216DAVISVP2,2013-07-08 09:12:00,
2013-07-08 04:17:00,70.9,64.5,29.99,NNE,15,0.0,4.0,80,0.00,,,0.00,WUHU216DAVISVP2,2013-07-08 09:17:00,
2013-07-08 04:22:00,70.9,64.6,29.99,NNE,15,1.0,3.0,80,0.00,,,0.00,WUHU216DAVISVP2,2013-07-08 09:22:00,
2013-07-08 04:27:00,70.9,64.5,29.99,NNE,15,0.0,3.0,80,0.00,,,0.00,WUHU216DAVISVP2,2013-07-08 09:27:00,
2013-07-08 04:32:00,70.8,64.4,29.99,NNE,15,0.0,3.0,80,0.00,,,0.00,WUHU216DAVISVP2,2013-07-08 09:32:00,
2013-07-08 04:37:00,70.7,64.7,29.99,NNE,15,0.0,3.0,81,0.00,,,0.00,WUHU216DAVISVP2,2013-07-08 09:37:00,
2013-07-08 04:42:00,70.7,64.6,29.99,NNE,15,0.0,3.0,81,0.00,,,0.00,WUHU216DAVISVP2,2013-07-08 09:42:00,
2013-07-08 04:47:00,70.6,64.5,29.98,NNE,15,0.0,3.0,81,0.00,,,0.00,WUHU216DAVISVP2,2013-07-08 09:47:00,
2013-07-08 04:52:00,70.5,64.5,29.98,NNE,15,0.0,3.0,81,0.00,,,0.00,WUHU216DAVISVP2,2013-07-08 09:52:00,
2013-07-08 04:57:00,70.4,64.4,29.99,NNE,15,1.0,3.0,81,0.00,,,0.00,WUHU216DAVISVP2,2013-07-08 09:57:00,
2013-07-08 05:02:00,70.4,64.7,29.98,NNE,15,0.0,3.0,82,0.00,,,0.00,WUHU216DAVISVP2,2013-07-08 10:02:00,
2013-07-08 05:07:00,70.3,64.6,29.99,NNE,15,0.0,4.0,82,0.00,,,0.00,WUHU216DAVISVP2,2013-07-08 10:07:00,
2013-07-08 05:12:00,70.2,64.5,29.99,NNE,15,0.0,4.0,82,0.00,,,0.00,WUHU216DAVISVP2,2013-07-08 10:12:00,
2013-07-08 05:17:00,70.2,64.5,29.99,NNE,15,2.0,4.0,82,0.00,,,0.00,WUHU216DAVISVP2,2013-07-08 10:17:00,
2013-07-08 05:22:00,70.2,64.8,29.99,NNE,15,0.0,4.0,83,0.00,,,0.00,WUHU216DAVISVP2,2013-07-08 10:22:00,
2013-07-08 05:27:00,70.1,64.4,29.99,NNE,15,0.0,3.0,82,0.00,,,0.00,WUHU216DAVISVP2,2013-07-08 10:27:00,
2013-07-08 05:32:00,70.0,64.7,29.99,NNE,15,0.0,3.0,83,0.00,,,0.00,WUHU216DAVISVP2,2013-07-08 10:32:00,
2013-07-08 05:37:00,70.1,64.7,29.99,NNE,15,0.0,3.0,83,0.00,,,0.00,WUHU216DAVISVP2,2013-07-08 10:37:00,
2013-07-08 05:42:00,70.0,64.7,30.00,NNE,15,0.0,0.0,83,0.00,,,0.00,WUHU216DAVISVP2,2013-07-08 10:42:00,
2013-07-08 05:47:00,70.0,64.7,30.00,NNE,15,0.0,0.0,83,0.00,,,0.00,WUHU216DAVISVP2,2013-07-08 10:47:00,
2013-07-08 05:52:00,69.9,64.5,30.00,NNE,15,0.0,0.0,83,0.00,,,0.00,WUHU216DAVISVP2,2013-07-08 10:52:00,
2013-07-08 05:57:00,69.8,64.8,30.00,NNE,15,0.0,0.0,84,0.00,,,0.00,WUHU216DAVISVP2,2013-07-08 10:57:00,
2013-07-08 06:02:00,69.8,64.8,30.00,NNE,15,0.0,0.0,84,0.00,,,0.00,WUHU216DAVISVP2,2013-07-08 11:02:00,
2013-07-08 06:07:00,69.8,64.8,30.00,NNE,15,0.0,0.0,84,0.00,,,0.00,WUHU216DAVISVP2,2013-07-08 11:07:00,
2013-07-08 06:12:00,69.8,64.8,30.00,NNE,15,0.0,0.0,84,0.00,,,0.00,WUHU216DAVISVP2,2013-07-08 11:12:00,
2013-07-08 06:17:00,69.8,64.7,30.00,NNE,15,0.0,0.0,84,0.00,,,0.00,WUHU216DAVISVP2,2013-07-08 11:17:00,
2013-07-08 06:22:00,69.8,65.1,30.00,NNE,15,0.0,0.0,85,0.00,,,0.00,WUHU216DAVISVP2,2013-07-08 11:22:00,
2013-07-08 06:27:00,69.8,65.1,30.00,NNE,15,0.0,0.0,85,0.00,,,0.00,WUHU216DAVISVP2,2013-07-08 11:27:00,
2013-07-08 06:32:00,69.8,65.1,30.00,NNE,15,1.0,2.0,85,0.00,,,0.00,WUHU216DAVISVP2,2013-07-08 11:32:00,
2013-07-08 06:37:00,69.9,65.2,30.00,NNE,15,0.0,2.0,85,0.00,,,0.00,WUHU216DAVISVP2,2013-07-08 11:37:00,
2013-07-08 06:42:00,69.9,65.2,30.00,NNE,15,0.0,2.0,85,0.00,,,0.00,WUHU216DAVISVP2,2013-07-08 11:42:00,
2013-07-08 06:47:00,70.2,65.5,30.01,NNE,15,1.0,3.0,85,0.00,,,0.00,WUHU216DAVISVP2,2013-07-08 11:47:00,
2013-07-08 06:52:00,70.3,65.6,30.01,NNE,15,0.0,3.0,85,0.00,,,0.00,WUHU216DAVISVP2,2013-07-08 11:52:00,
2013-07-08 06:57:00,70.6,65.9,30.01,NNE,15,2.0,5.0,85,0.00,,,0.00,WUHU216DAVISVP2,2013-07-08 11:57:00,
2013-07-08 07:02:00,70.9,66.2,30.01,NNE,15,1.0,5.0,85,0.00,,,0.00,WUHU216DAVISVP2,2013-07-08 12:02:00,
2013-07-08 07:07:00,71.2,66.2,30.01,NNE,15,2.0,5.0,84,0.00,,,0.00,WUHU216DAVISVP2,2013-07-08 12:07:00,
2013-07-08 07:12:00,71.4,66.4,30.02,NNE,15,2.0,5.0,84,0.00,,,0.00,WUHU216DAVISVP2,2013-07-08 12:12:00,
2013-07-08 07:17:00,71.8,66.7,30.02,NNE,15,2.0,4.0,84,0.00,,,0.00,WUHU216DAVISVP2,2013-07-08 12:17:00,
2013-07-08 07:22:00,72.0,66.6,30.02,NNE,15,1.0,5.0,83,0.00,,,0.00,WUHU216DAVISVP2,2013-07-08 12:22:00,
2013-07-08 07:27:00,72.3,66.9,30.02,NNE,15,1.0,5.0,83,0.00,,,0.00,WUHU216DAVISVP2,2013-07-08 12:27:00,
2013-07-08 07:32:00,72.4,67.3,30.02,NNE,15,2.0,5.0,84,0.00,,,0.00,WUHU216DAVISVP2,2013-07-08 12:32:00,
2013-07-08 07:37:00,72.4,67.4,30.02,NNE,15,1.0,5.0,84,0.00,,,0.00,WUHU216DAVISVP2,2013-07-08 12:37:00,
2013-07-08 07:42:00,72.7,67.6,30.02,NNE,15,0.0,5.0,84,0.00,,,0.00,WUHU216DAVISVP2,2013-07-08 12:42:00,
2013-07-08 07:47:00,72.8,67.7,30.02,NNE,15,0.0,5.0,84,0.00,,,0.00,WUHU216DAVISVP2,2013-07-08 12:47:00,
2013-07-08 07:52:00,73.0,68.0,30.03,NNE,15,1.0,4.0,84,0.00,,,0.00,WUHU216DAVISVP2,2013-07-08 12:52:00,
2013-07-08 07:57:00,73.3,68.2,30.03,NNE,15,2.0,4.0,84,0.00,,,0.00,WUHU216DAVISVP2,2013-07-08 12:57:00,
2013-07-08 08:02:00,73.5,68.4,30.03,NNE,15,1.0,4.0,84,0.00,,,0.00,WUHU216DAVISVP2,2013-07-08 13:02:00,
2013-07-08 08:07:00,73.8,68.3,30.03,NNE,15,2.0,4.0,83,0.00,,,0.00,WUHU216DAVISVP2,2013-07-08 13:07:00,
2013-07-08 08:12:00,74.1,68.7,30.03,NNE,15,3.0,5.0,83,0.00,,,0.00,WUHU216DAVISVP2,2013-07-08 13:12:00,
2013-07-08 08:17:00,74.6,68.8,30.03,NNE,15,1.0,6.0,82,0.00,,,0.00,WUHU216DAVISVP2,2013-07-08 13:17:00,
2013-07-08 08:22:00,74.9,68.8,30.03,NNE,15,0.0,6.0,81,0.00,,,0.00,WUHU216DAVISVP2,2013-07-08 13:22:00,
2013-07-08 08:27:00,75.1,68.6,30.03,NNE,15,5.0,6.0,80,0.00,,,0.00,WUHU216DAVISVP2,2013-07-08 13:27:00,
2013-07-08 08:32:00,75.3,68.8,30.03,NNE,15,1.0,6.0,80,0.00,,,0.00,WUHU216DAVISVP2,2013-07-08 13:32:00,
2013-07-08 08:37:00,75.2,68.4,30.03,NNE,15,6.0,9.0,79,0.00,,,0.00,WUHU216DAVISVP2,2013-07-08 13:37:00,
2013-07-08 08:42:00,75.2,68.7,30.03,North,8,0.0,9.0,80,0.00,,,0.00,WUHU216DAVISVP2,2013-07-08 13:42:00,
2013-07-08 08:47:00,75.1,68.6,30.03,North,11,1.0,9.0,80,0.00,,,0.00,WUHU216DAVISVP2,2013-07-08 13:47:00,
2013-07-08 08:52:00,75.3,68.4,30.03,North,11,1.0,9.0,79,0.00,,,0.00,WUHU216DAVISVP2,2013-07-08 13:52:00,
2013-07-08 08:57:00,75.2,68.4,30.04,NNE,20,1.0,8.0,79,0.00,,,0.00,WUHU216DAVISVP2,2013-07-08 13:57:00,
2013-07-08 09:02:00,75.0,68.5,30.04,NE,39,0.0,8.0,80,0.00,,,0.00,WUHU216DAVISVP2,2013-07-08 14:02:00,
2013-07-08 09:07:00,74.9,68.1,30.04,NE,34,1.0,8.0,79,0.00,,,0.00,WUHU216DAVISVP2,2013-07-08 14:07:00,
2013-07-08 09:12:00,75.0,68.5,30.04,NE,35,0.0,8.0,80,0.00,,,0.00,WUHU216DAVISVP2,2013-07-08 14:12:00,
2013-07-08 09:17:00,75.0,68.9,30.04,NNE,31,1.0,7.0,81,0.00,,,0.00,WUHU216DAVISVP2,2013-07-08 14:17:00,
2013-07-08 09:22:00,75.2,68.7,30.04,NNE,25,5.0,7.0,80,0.00,,,0.00,WUHU216DAVISVP2,2013-07-08 14:22:00,
2013-07-08 09:27:00,75.4,68.9,30.03,NNE,25,0.0,7.0,80,0.00,,,0.00,WUHU216DAVISVP2,2013-07-08 14:27:00,
2013-07-08 09:32:00,75.7,68.5,30.03,NNE,25,1.0,7.0,78,0.00,,,0.00,WUHU216DAVISVP2,2013-07-08 14:32:00,
2013-07-08 09:37:00,75.9,68.6,30.03,NE,54,1.0,7.0,78,0.00,,,0.00,WUHU216DAVISVP2,2013-07-08 14:37:00,
2013-07-08 09:42:00,76.0,68.8,30.03,NNE,15,5.0,8.0,78,0.00,,,0.00,WUHU216DAVISVP2,2013-07-08 14:42:00,
2013-07-08 09:47:00,76.3,68.7,30.03,NNE,32,0.0,8.0,77,0.00,,,0.00,WUHU216DAVISVP2,2013-07-08 14:47:00,
2013-07-08 09:52:00,76.7,68.7,30.03,NE,51,2.0,8.0,76,0.00,,,0.00,WUHU216DAVISVP2,2013-07-08 14:52:00,
2013-07-08 09:57:00,76.8,68.8,30.03,NE,51,1.0,8.0,76,0.00,,,0.00,WUHU216DAVISVP2,2013-07-08 14:57:00,
2013-07-08 10:05:00,77.0,68.3,30.04,ENE,67,6.0,8.0,74,0.00,,,0.00,WUHU216DAVISVP2,2013-07-08 15:05:00,
2013-07-08 10:10:00,76.8,68.5,30.03,ENE,70,4.0,8.0,75,0.00,,,0.00,WUHU216DAVISVP2,2013-07-08 15:10:00,
2013-07-08 10:15:00,76.8,68.8,30.04,ENE,70,0.0,8.0,76,0.00,,,0.00,WUHU216DAVISVP2,2013-07-08 15:15:00,
2013-07-08 10:20:00,76.9,68.5,30.03,ENE,69,2.0,8.0,75,0.00,,,0.00,WUHU216DAVISVP2,2013-07-08 15:20:00,
2013-07-08 10:25:00,77.1,68.7,30.03,NE,42,0.0,7.0,75,0.00,,,0.00,WUHU216DAVISVP2,2013-07-08 15:25:00,
2013-07-08 10:30:00,77.4,69.0,30.03,NE,37,0.0,7.0,75,0.00,,,0.00,WUHU216DAVISVP2,2013-07-08 15:30:00,
2013-07-08 10:35:00,77.7,68.6,30.03,NNE,25,1.0,8.0,73,0.00,,,0.00,WUHU216DAVISVP2,2013-07-08 15:35:00,
2013-07-08 10:40:00,77.9,68.8,30.03,NE,39,1.0,8.0,73,0.00,,,0.00,WUHU216DAVISVP2,2013-07-08 15:40:00,
2013-07-08 10:45:00,78.1,68.6,30.03,NE,43,0.0,8.0,72,0.00,,,0.00,WUHU216DAVISVP2,2013-07-08 15:45:00,
2013-07-08 10:50:00,78.3,68.8,30.03,NE,35,2.0,8.0,72,0.00,,,0.00,WUHU216DAVISVP2,2013-07-08 15:50:00,
2013-07-08 10:55:00,78.8,69.2,30.03,NE,53,3.0,8.0,72,0.00,,,0.00,WUHU216DAVISVP2,2013-07-08 15:55:00,
2013-07-08 11:00:00,79.0,69.0,30.03,NE,46,1.0,8.0,71,0.00,,,0.00,WUHU216DAVISVP2,2013-07-08 16:00:00,
2013-07-08 11:05:00,79.2,68.3,30.03,ENE,73,5.0,8.0,69,0.00,,,0.00,WUHU216DAVISVP2,2013-07-08 16:05:00,
2013-07-08 11:10:00,79.3,68.4,30.03,NE,42,0.0,9.0,69,0.00,,,0.00,WUHU216DAVISVP2,2013-07-08 16:10:00,
2013-07-08 11:15:00,79.6,69.2,30.03,NE,45,2.0,9.0,70,0.00,,,0.00,WUHU216DAVISVP2,2013-07-08 16:15:00,
2013-07-08 11:20:00,79.8,68.1,30.03,ENE,57,0.0,9.0,67,0.00,,,0.00,WUHU216DAVISVP2,2013-07-08 16:20:00,
2013-07-08 11:25:00,79.9,67.8,30.03,NNE,20,2.0,7.0,66,0.00,,,0.00,WUHU216DAVISVP2,2013-07-08 16:25:00,
2013-07-08 11:30:00,80.1,67.6,30.03,NNE,15,2.0,7.0,65,0.00,,,0.00,WUHU216DAVISVP2,2013-07-08 16:30:00,
2013-07-08 11:35:00,80.3,67.7,30.03,NE,55,4.0,7.0,65,0.00,,,0.00,WUHU216DAVISVP2,2013-07-08 16:35:00,
2013-07-08 11:40:00,80.4,68.3,30.03,ENE,58,1.0,7.0,66,0.00,,,0.00,WUHU216DAVISVP2,2013-07-08 16:40:00,
2013-07-08 11:45:00,80.3,66.3,30.03,ENE,64,5.0,8.0,62,0.00,,,0.00,WUHU216DAVISVP2,2013-07-08 16:45:00,
2013-07-08 11:50:00,80.1,66.1,30.03,ENE,73,6.0,10.0,62,0.00,,,0.00,WUHU216DAVISVP2,2013-07-08 16:50:00,
2013-07-08 11:55:00,80.3,67.3,30.03,NE,42,1.0,11.0,64,0.00,,,0.00,WUHU216DAVISVP2,2013-07-08 16:55:00,
2013-07-08 12:01:00,80.5,66.5,30.03,ENE,59,2.0,11.0,62,0.00,,,0.00,WUHU216DAVISVP2,2013-07-08 17:01:00,
2013-07-08 12:06:00,80.6,67.1,30.03,ENE,72,3.0,11.0,63,0.00,,,0.00,WUHU216DAVISVP2,2013-07-08 17:06:00,
2013-07-08 12:11:00,81.0,66.5,30.03,ENE,60,1.0,11.0,61,0.00,,,0.00,WUHU216DAVISVP2,2013-07-08 17:11:00,
2013-07-08 12:16:00,81.4,67.3,30.03,NNE,15,6.0,10.0,62,0.00,,,0.00,WUHU216DAVISVP2,2013-07-08 17:16:00,
2013-07-08 12:21:00,81.4,66.9,30.03,ENE,63,7.0,11.0,61,0.00,,,0.00,WUHU216DAVISVP2,2013-07-08 17:21:00,
2013-07-08 12:27:00,80.9,66.4,30.03,ENE,64,4.0,11.0,61,0.00,,,0.00,WUHU216DAVISVP2,2013-07-08 17:27:00,
2013-07-08 12:32:00,80.6,67.1,30.03,North,360,5.0,11.0,63,0.00,,,0.00,WUHU216DAVISVP2,2013-07-08 17:32:00,
2013-07-08 12:37:00,80.7,66.8,30.03,North,349,7.0,10.0,62,0.00,,,0.00,WUHU216DAVISVP2,2013-07-08 17:37:00,
2013-07-08 12:43:00,80.8,66.8,30.02,North,5,3.0,11.0,62,0.00,,,0.00,WUHU216DAVISVP2,2013-07-08 17:43:00,
2013-07-08 12:48:00,80.9,66.4,30.02,NNE,20,4.0,11.0,61,0.00,,,0.00,WUHU216DAVISVP2,2013-07-08 17:48:00,
2013-07-08 12:53:00,81.0,67.0,30.02,North,11,8.0,11.0,62,0.00,,,0.00,WUHU216DAVISVP2,2013-07-08 17:53:00,
2013-07-08 12:58:00,81.0,67.0,30.02,North,358,2.0,10.0,62,0.00,,,0.00,WUHU216DAVISVP2,2013-07-08 17:58:00,
2013-07-08 13:04:00,81.2,66.2,30.02,North,5,4.0,10.0,60,0.00,,,0.00,WUHU216DAVISVP2,2013-07-08 18:04:00,
2013-07-08 13:09:00,81.3,67.3,30.02,North,6,2.0,10.0,62,0.00,,,0.00,WUHU216DAVISVP2,2013-07-08 18:09:00,
2013-07-08 13:14:00,81.5,67.0,30.02,NNE,31,3.0,9.0,61,0.00,,,0.00,WUHU216DAVISVP2,2013-07-08 18:14:00,
2013-07-08 13:20:00,81.7,66.2,30.02,North,8,5.0,10.0,59,0.00,,,0.00,WUHU216DAVISVP2,2013-07-08 18:20:00,
2013-07-08 13:25:00,82.0,66.0,30.02,North,360,5.0,10.0,58,0.00,,,0.00,WUHU216DAVISVP2,2013-07-08 18:25:00,
2013-07-08 13:30:00,82.2,66.2,30.01,NNE,29,2.0,10.0,58,0.00,,,0.00,WUHU216DAVISVP2,2013-07-08 18:30:00,
2013-07-08 13:35:00,82.1,66.6,30.01,ENE,61,2.0,10.0,59,0.00,,,0.00,WUHU216DAVISVP2,2013-07-08 18:35:00,
2013-07-08 13:41:00,82.5,67.0,30.01,NNE,15,4.0,8.0,59,0.00,,,0.00,WUHU216DAVISVP2,2013-07-08 18:41:00,
2013-07-08 13:46:00,83.0,65.9,30.01,NNW,348,3.0,8.0,56,0.00,,,0.00,WUHU216DAVISVP2,2013-07-08 18:46:00,
2013-07-08 13:52:00,83.1,67.0,30.01,North,349,3.0,8.0,58,0.00,,,0.00,WUHU216DAVISVP2,2013-07-08 18:52:00,
2013-07-08 13:57:00,83.0,66.9,30.01,NNW,341,7.0,9.0,58,0.00,,,0.00,WUHU216DAVISVP2,2013-07-08 18:57:00,
2013-07-08 14:02:00,82.9,66.3,30.01,North,358,2.0,9.0,57,0.00,,,0.00,WUHU216DAVISVP2,2013-07-08 19:02:00,
2013-07-08 14:08:00,83.2,66.6,30.01,North,358,0.0,9.0,57,0.00,,,0.00,WUHU216DAVISVP2,2013-07-08 19:08:00,
2013-07-08 14:13:00,83.6,67.5,30.01,North,358,3.0,9.0,58,0.00,,,0.00,WUHU216DAVISVP2,2013-07-08 19:13:00,
2013-07-08 14:18:00,83.9,67.3,30.01,North,358,0.0,7.0,57,0.00,,,0.00,WUHU216DAVISVP2,2013-07-08 19:18:00,
2013-07-08 14:24:00,83.9,67.2,30.00,North,358,1.0,7.0,57,0.00,,,0.00,WUHU216DAVISVP2,2013-07-08 19:24:00,
2013-07-08 14:29:00,83.8,66.7,30.00,North,356,0.0,7.0,56,0.00,,,0.00,WUHU216DAVISVP2,2013-07-08 19:29:00,
2013-07-08 14:34:00,83.9,67.3,30.00,North,356,1.0,7.0,57,0.00,,,0.00,WUHU216DAVISVP2,2013-07-08 19:34:00,
2013-07-08 14:39:00,84.2,67.0,30.00,North,354,2.0,7.0,56,0.00,,,0.00,WUHU216DAVISVP2,2013-07-08 19:39:00,
2013-07-08 14:44:00,84.2,67.5,30.00,North,354,0.0,7.0,57,0.00,,,0.00,WUHU216DAVISVP2,2013-07-08 19:44:00,
2013-07-08 14:49:00,84.4,66.6,30.00,North,353,2.0,6.0,55,0.00,,,0.00,WUHU216DAVISVP2,2013-07-08 19:49:00,
2013-07-08 14:55:00,84.5,67.4,30.00,North,351,4.0,6.0,56,0.00,,,0.00,WUHU216DAVISVP2,2013-07-08 19:55:00,
2013-07-08 15:00:00,84.9,66.6,30.00,North,351,3.0,6.0,54,0.00,,,0.00,WUHU216DAVISVP2,2013-07-08 20:00:00,
2013-07-08 15:05:00,85.1,66.8,30.00,North,350,3.0,6.0,54,0.00,,,0.00,WUHU216DAVISVP2,2013-07-08 20:05:00,
2013-07-08 15:10:00,85.2,67.5,30.00,North,350,0.0,6.0,55,0.00,,,0.00,WUHU216DAVISVP2,2013-07-08 20:10:00,
2013-07-08 15:15:00,85.4,68.2,30.00,North,350,2.0,5.0,56,0.00,,,0.00,WUHU216DAVISVP2,2013-07-08 20:15:00,
2013-07-08 15:21:00,85.5,68.3,30.00,North,350,2.0,5.0,56,0.00,,,0.00,WUHU216DAVISVP2,2013-07-08 20:21:00,
2013-07-08 15:26:00,85.8,66.9,29.99,North,350,4.0,5.0,53,0.00,,,0.00,WUHU216DAVISVP2,2013-07-08 20:26:00,
2013-07-08 15:31:00,86.1,66.6,29.99,NNW,347,3.0,5.0,52,0.00,,,0.00,WUHU216DAVISVP2,2013-07-08 20:31:00,
2013-07-08 15:37:00,86.5,67.5,29.99,North,350,3.0,6.0,53,0.00,,,0.00,WUHU216DAVISVP2,2013-07-08 20:37:00,
2013-07-08 15:42:00,86.8,67.3,29.99,North,353,2.0,6.0,52,0.00,,,0.00,WUHU216DAVISVP2,2013-07-08 20:42:00,
2013-07-08 15:47:00,87.0,67.5,29.99,North,353,1.0,6.0,52,0.00,,,0.00,WUHU216DAVISVP2,2013-07-08 20:47:00,
2013-07-08 15:52:00,87.3,68.8,29.99,NNW,348,2.0,6.0,54,0.00,,,0.00,WUHU216DAVISVP2,2013-07-08 20:52:00,
2013-07-08 15:57:00,87.5,67.9,29.99,NNW,339,3.0,7.0,52,0.00,,,0.00,WUHU216DAVISVP2,2013-07-08 20:57:00,
2013-07-08 16:03:00,87.7,68.1,29.99,North,359,3.0,7.0,52,0.00,,,0.00,WUHU216DAVISVP2,2013-07-08 21:03:00,
2013-07-08 16:08:00,88.1,69.0,29.99,NNW,343,6.0,7.0,53,0.00,,,0.00,WUHU216DAVISVP2,2013-07-08 21:08:00,
2013-07-08 16:13:00,88.2,68.6,29.98,NNW,328,5.0,8.0,52,0.00,,,0.00,WUHU216DAVISVP2,2013-07-08 21:13:00,
2013-07-08 16:18:00,88.1,68.5,29.99,NNW,328,2.0,9.0,52,0.00,,,0.00,WUHU216DAVISVP2,2013-07-08 21:18:00,
2013-07-08 16:23:00,88.0,69.5,29.98,NNW,338,1.0,9.0,54,0.00,,,0.00,WUHU216DAVISVP2,2013-07-08 21:23:00,
2013-07-08 16:28:00,87.6,69.2,29.98,NNW,338,2.0,9.0,54,0.00,,,0.00,WUHU216DAVISVP2,2013-07-08 21:28:00,
2013-07-08 16:34:00,87.7,69.2,29.98,NNW,338,2.0,7.0,54,0.00,,,0.00,WUHU216DAVISVP2,2013-07-08 21:34:00,
2013-07-08 16:40:00,87.9,68.8,29.98,NNW,336,3.0,9.0,53,0.00,,,0.00,WUHU216DAVISVP2,2013-07-08 21:40:00,
2013-07-08 16:45:00,88.2,70.8,29.98,NNW,336,3.0,9.0,56,0.00,,,0.00,WUHU216DAVISVP2,2013-07-08 21:45:00,
2013-07-08 16:50:00,88.5,69.9,29.98,NNW,336,1.0,9.0,54,0.00,,,0.00,WUHU216DAVISVP2,2013-07-08 21:50:00,
2013-07-08 16:55:00,88.6,70.1,29.98,NNW,339,4.0,7.0,54,0.00,,,0.00,WUHU216DAVISVP2,2013-07-08 21:55:00,
2013-07-08 17:00:00,88.7,70.2,29.98,NNW,339,5.0,7.0,54,0.00,,,0.00,WUHU216DAVISVP2,2013-07-08 22:00:00,
2013-07-08 17:05:00,88.9,70.3,29.98,NNW,341,2.0,7.0,54,0.00,,,0.00,WUHU216DAVISVP2,2013-07-08 22:05:00,
2013-07-08 17:10:00,89.2,70.6,29.97,NNW,341,4.0,7.0,54,0.00,,,0.00,WUHU216DAVISVP2,2013-07-08 22:10:00,
2013-07-08 17:15:00,89.4,71.4,29.97,NNW,341,5.0,7.0,55,0.00,,,0.00,WUHU216DAVISVP2,2013-07-08 22:15:00,
2013-07-08 17:20:00,89.7,71.1,29.97,NNW,331,2.0,7.0,54,0.00,,,0.00,WUHU216DAVISVP2,2013-07-08 22:20:00,
2013-07-08 17:25:00,90.0,70.8,29.97,NNW,331,1.0,7.0,53,0.00,,,0.00,WUHU216DAVISVP2,2013-07-08 22:25:00,
2013-07-08 17:31:00,90.3,71.1,29.97,NNW,331,3.0,7.0,53,0.00,,,0.00,WUHU216DAVISVP2,2013-07-08 22:31:00,
2013-07-08 17:36:00,90.5,70.1,29.97,NNW,331,1.0,7.0,51,0.00,,,0.00,WUHU216DAVISVP2,2013-07-08 22:36:00,
2013-07-08 17:41:00,90.8,71.6,29.97,NW,326,6.0,7.0,53,0.00,,,0.00,WUHU216DAVISVP2,2013-07-08 22:41:00,
2013-07-08 17:47:00,91.0,70.6,29.96,NNW,329,2.0,8.0,51,0.00,,,0.00,WUHU216DAVISVP2,2013-07-08 22:47:00,
2013-07-08 17:52:00,91.3,70.9,29.96,NNW,328,6.0,8.0,51,0.00,,,0.00,WUHU216DAVISVP2,2013-07-08 22:52:00,
2013-07-08 17:57:00,91.5,71.6,29.96,NNW,346,4.0,8.0,52,0.00,,,0.00,WUHU216DAVISVP2,2013-07-08 22:57:00,
2013-07-08 18:03:00,91.7,71.2,29.96,NNW,342,5.0,8.0,51,0.00,,,0.00,WUHU216DAVISVP2,2013-07-08 23:03:00,
2013-07-08 18:09:00,91.5,70.5,29.96,NNW,330,1.0,8.0,50,0.00,,,0.00,WUHU216DAVISVP2,2013-07-08 23:09:00,
2013-07-08 18:14:00,91.4,70.3,29.96,NNW,344,4.0,8.0,50,0.00,,,0.00,WUHU216DAVISVP2,2013-07-08 23:14:00,
2013-07-08 18:19:00,91.5,71.6,29.96,NNW,344,4.0,8.0,52,0.00,,,0.00,WUHU216DAVISVP2,2013-07-08 23:19:00,
2013-07-08 18:24:00,91.3,70.3,29.96,North,349,5.0,8.0,50,0.00,,,0.00,WUHU216DAVISVP2,2013-07-08 23:24:00,
2013-07-08 18:30:00,91.1,71.2,29.95,North,349,3.0,8.0,52,0.00,,,0.00,WUHU216DAVISVP2,2013-07-08 23:30:00,
2013-07-08 18:35:00,90.9,69.9,29.95,North,349,5.0,8.0,50,0.00,,,0.00,WUHU216DAVISVP2,2013-07-08 23:35:00,
2013-07-08 18:40:00,90.8,70.4,29.95,North,349,3.0,8.0,51,0.00,,,0.00,WUHU216DAVISVP2,2013-07-08 23:40:00,
2013-07-08 18:45:00,90.8,70.3,29.95,North,349,3.0,5.0,51,0.00,,,0.00,WUHU216DAVISVP2,2013-07-08 23:45:00,
2013-07-08 18:50:00,90.7,70.9,29.96,North,349,3.0,5.0,52,0.00,,,0.00,WUHU216DAVISVP2,2013-07-08 23:50:00,
2013-07-08 18:55:00,90.7,71.4,29.95,North,349,1.0,5.0,53,0.00,,,0.00,WUHU216DAVISVP2,2013-07-08 23:55:00,
2013-07-08 19:00:00,90.7,70.8,29.95,North,349,2.0,4.0,52,0.00,,,0.00,WUHU216DAVISVP2,2013-07-09 00:00:00,
2013-07-08 19:06:00,90.4,71.2,29.95,North,349,4.0,4.0,53,0.00,,,0.00,WUHU216DAVISVP2,2013-07-09 00:06:00,
2013-07-08 19:11:00,90.1,70.9,29.95,North,349,3.0,4.0,53,0.00,,,0.00,WUHU216DAVISVP2,2013-07-09 00:11:00,
2013-07-08 19:16:00,89.8,70.7,29.95,North,349,2.0,5.0,53,0.00,,,0.00,WUHU216DAVISVP2,2013-07-09 00:16:00,
2013-07-08 19:21:00,89.6,71.0,29.95,North,349,1.0,5.0,54,0.00,,,0.00,WUHU216DAVISVP2,2013-07-09 00:21:00,
2013-07-08 19:27:00,89.5,71.4,29.95,North,349,0.0,5.0,55,0.00,,,0.00,WUHU216DAVISVP2,2013-07-09 00:27:00,
2013-07-08 19:32:00,89.5,72.0,29.95,North,349,0.0,5.0,56,0.00,,,0.00,WUHU216DAVISVP2,2013-07-09 00:32:00,
2013-07-08 19:38:00,89.4,71.9,29.95,North,349,0.0,3.0,56,0.00,,,0.00,WUHU216DAVISVP2,2013-07-09 00:38:00,
2013-07-08 19:43:00,89.2,71.7,29.95,North,349,0.0,1.0,56,0.00,,,0.00,WUHU216DAVISVP2,2013-07-09 00:43:00,
2013-07-08 19:49:00,89.0,72.1,29.95,North,349,0.0,0.0,57,0.00,,,0.00,WUHU216DAVISVP2,2013-07-09 00:49:00,
2013-07-08 19:54:00,88.8,71.8,29.95,North,349,0.0,0.0,57,0.00,,,0.00,WUHU216DAVISVP2,2013-07-09 00:54:00,
2013-07-08 19:59:00,88.6,72.2,29.95,North,349,0.0,0.0,58,0.00,,,0.00,WUHU216DAVISVP2,2013-07-09 00:59:00,
2013-07-08 20:04:00,88.3,71.9,29.95,North,349,0.0,0.0,58,0.00,,,0.00,WUHU216DAVISVP2,2013-07-09 01:04:00,
2013-07-08 20:10:00,88.1,72.2,29.95,North,349,0.0,1.0,59,0.00,,,0.00,WUHU216DAVISVP2,2013-07-09 01:10:00,
2013-07-08 20:14:00,87.5,71.7,29.95,North,349,0.0,1.0,59,0.00,,,0.00,WUHU216DAVISVP2,2013-07-09 01:14:00,
2013-07-08 20:20:00,87.2,71.4,29.95,North,349,0.0,1.0,59,0.00,,,0.00,WUHU216DAVISVP2,2013-07-09 01:20:00,
2013-07-08 20:25:00,86.7,71.4,29.95,North,349,0.0,1.0,60,0.00,,,0.00,WUHU216DAVISVP2,2013-07-09 01:25:00,
2013-07-08 20:30:00,86.1,71.4,29.95,North,349,0.0,1.0,61,0.00,,,0.00,WUHU216DAVISVP2,2013-07-09 01:30:00,
2013-07-08 20:36:00,85.6,71.4,29.95,North,349,0.0,1.0,62,0.00,,,0.00,WUHU216DAVISVP2,2013-07-09 01:36:00,
2013-07-08 20:41:00,85.1,70.9,29.96,North,349,0.0,1.0,62,0.00,,,0.00,WUHU216DAVISVP2,2013-07-09 01:41:00,
2013-07-08 20:46:00,84.7,71.0,29.96,North,349,3.0,3.0,63,0.00,,,0.00,WUHU216DAVISVP2,2013-07-09 01:46:00,
2013-07-08 20:52:00,84.1,70.9,29.95,North,349,0.0,4.0,64,0.00,,,0.00,WUHU216DAVISVP2,2013-07-09 01:52:00,
2013-07-08 20:57:00,83.6,70.4,29.95,North,349,3.0,4.0,64,0.00,,,0.00,WUHU216DAVISVP2,2013-07-09 01:57:00,
2013-07-08 21:02:00,83.1,70.0,29.95,North,349,2.0,4.0,64,0.00,,,0.00,WUHU216DAVISVP2,2013-07-09 02:02:00,
2013-07-08 21:07:00,82.8,69.2,29.95,North,349,4.0,4.0,63,0.00,,,0.00,WUHU216DAVISVP2,2013-07-09 02:07:00,
2013-07-08 21:12:00,82.6,69.0,29.96,North,349,2.0,4.0,63,0.00,,,0.00,WUHU216DAVISVP2,2013-07-09 02:12:00,
2013-07-08 21:17:00,82.4,69.7,29.96,North,349,0.0,4.0,65,0.00,,,0.00,WUHU216DAVISVP2,2013-07-09 02:17:00,
2013-07-08 21:23:00,81.9,69.3,29.96,North,349,1.0,4.0,65,0.00,,,0.00,WUHU216DAVISVP2,2013-07-09 02:23:00,
2013-07-08 21:28:00,81.6,68.9,29.96,North,349,0.0,4.0,65,0.00,,,0.00,WUHU216DAVISVP2,2013-07-09 02:28:00,
2013-07-08 21:33:00,81.4,68.7,29.97,North,349,0.0,2.0,65,0.00,,,0.00,WUHU216DAVISVP2,2013-07-09 02:33:00,
2013-07-08 21:38:00,81.1,69.0,29.97,North,349,0.0,3.0,66,0.00,,,0.00,WUHU216DAVISVP2,2013-07-09 02:38:00,
2013-07-08 21:44:00,80.9,68.7,29.97,North,349,0.0,3.0,66,0.00,,,0.00,WUHU216DAVISVP2,2013-07-09 02:44:00,
2013-07-08 21:49:00,80.6,68.9,29.97,North,349,0.0,3.0,67,0.00,,,0.00,WUHU216DAVISVP2,2013-07-09 02:49:00,
2013-07-08 21:54:00,80.4,68.6,29.97,North,349,0.0,2.0,67,0.00,,,0.00,WUHU216DAVISVP2,2013-07-09 02:54:00,
2013-07-08 22:00:00,80.0,68.8,29.97,North,349,0.0,2.0,68,0.00,,,0.00,WUHU216DAVISVP2,2013-07-09 03:00:00,
2013-07-08 22:05:00,79.7,68.5,29.97,North,349,0.0,3.0,68,0.00,,,0.00,WUHU216DAVISVP2,2013-07-09 03:05:00,
2013-07-08 22:11:00,79.4,68.1,29.97,North,349,2.0,4.0,68,0.00,,,0.00,WUHU216DAVISVP2,2013-07-09 03:11:00,
2013-07-08 22:16:00,79.3,68.0,29.98,North,349,0.0,4.0,68,0.00,,,0.00,WUHU216DAVISVP2,2013-07-09 03:16:00,
2013-07-08 22:21:00,79.2,67.6,29.98,North,349,3.0,4.0,67,0.00,,,0.00,WUHU216DAVISVP2,2013-07-09 03:21:00,
2013-07-08 22:26:00,79.2,67.6,29.98,North,349,2.0,4.0,67,0.00,,,0.00,WUHU216DAVISVP2,2013-07-09 03:26:00,
2013-07-08 22:31:00,79.2,67.5,29.98,North,349,1.0,4.0,67,0.00,,,0.00,WUHU216DAVISVP2,2013-07-09 03:31:00,
2013-07-08 22:36:00,79.1,67.4,29.98,North,349,4.0,4.0,67,0.00,,,0.00,WUHU216DAVISVP2,2013-07-09 03:36:00,
2013-07-08 22:41:00,79.0,67.7,29.98,North,349,0.0,4.0,68,0.00,,,0.00,WUHU216DAVISVP2,2013-07-09 03:41:00,
2013-07-08 22:46:00,78.7,67.1,29.98,North,349,0.0,4.0,67,0.00,,,0.00,WUHU216DAVISVP2,2013-07-09 03:46:00,
2013-07-08 22:52:00,78.5,67.3,29.98,North,349,0.0,4.0,68,0.00,,,0.00,WUHU216DAVISVP2,2013-07-09 03:52:00,
2013-07-08 22:57:00,78.3,67.5,29.98,North,349,0.0,4.0,69,0.00,,,0.00,WUHU216DAVISVP2,2013-07-09 03:57:00,
2013-07-08 23:01:00,78.0,67.2,29.98,North,349,0.0,2.0,69,0.00,,,0.00,WUHU216DAVISVP2,2013-07-09 04:01:00,
2013-07-08 23:02:00,78.0,67.2,29.98,North,349,0.0,0.0,69,0.00,,,0.00,WUHU216DAVISVP2,2013-07-09 04:02:00,
2013-07-08 23:07:00,77.7,67.3,29.98,North,349,0.0,0.0,70,0.00,,,0.00,WUHU216DAVISVP2,2013-07-09 04:07:00,
2013-07-08 23:12:00,77.6,67.2,29.98,North,349,0.0,0.0,70,0.00,,,0.00,WUHU216DAVISVP2,2013-07-09 04:12:00,
2013-07-08 23:17:00,77.3,67.0,29.98,North,349,0.0,0.0,70,0.00,,,0.00,WUHU216DAVISVP2,2013-07-09 04:17:00,
2013-07-08 23:22:00,77.2,66.9,29.98,North,349,3.0,3.0,70,0.00,,,0.00,WUHU216DAVISVP2,2013-07-09 04:22:00,
2013-07-08 23:27:00,77.0,66.7,29.99,North,349,1.0,3.0,70,0.00,,,0.00,WUHU216DAVISVP2,2013-07-09 04:27:00,
2013-07-08 23:32:00,77.0,66.7,29.99,North,349,1.0,4.0,70,0.00,,,0.00,WUHU216DAVISVP2,2013-07-09 04:32:00,
2013-07-08 23:37:00,77.0,66.7,29.99,North,349,0.0,4.0,70,0.00,,,0.00,WUHU216DAVISVP2,2013-07-09 04:37:00,
2013-07-08 23:42:00,76.9,66.6,29.99,North,349,3.0,4.0,70,0.00,,,0.00,WUHU216DAVISVP2,2013-07-09 04:42:00,
2013-07-08 23:47:00,76.9,66.6,29.99,North,349,0.0,4.0,70,0.00,,,0.00,WUHU216DAVISVP2,2013-07-09 04:47:00,
2013-07-08 23:52:00,76.8,66.4,29.99,North,349,0.0,4.0,70,0.00,,,0.00,WUHU216DAVISVP2,2013-07-09 04:52:00,
2013-07-08 23:57:00,76.7,66.3,29.99,North,349,0.0,4.0,70,0.00,,,0.00,WUHU216DAVISVP2,2013-07-09 04:57:00,